F5ZQC-13 Weather Reports


Display with metric or nautical units.
time (UTC)temp
F
wind
direction
speed
MPH
gust
MPH
rain 1hr
in
rain 24hr
in
rain mn
in
humidity
%
barometer
mb
20260903202531 -31 315 8.0 8.0 0.00 0.00 0.00 26 5318.5
20260903202128 -25 315 7.0 7.0 0.00 0.00 0.00 25 5318.5
20260903200511 714 337 8.0 8.0 0.00 0.00 0.00 25 4420.7
20260903193846 32 315 5.0 6.0 0.00 0.00 0.00 23 5318.5
20260903193643 49 315 6.0 6.0 0.00 0.00 0.00 23 5318.5
20260903192227 715 315 5.0 5.0 0.00 0.00 0.00 22 1799.4
20260903191823 143 348 3.0 5.0 0.00 0.00 0.00 22 5318.5
20260903191419 715 315 4.0 6.0 0.00 0.00 0.00 22 488.7
20260903190408 270 0 4.0 6.0 0.00 0.00 0.00 21 5318.5
20260903185358 715 315 4.0 5.0 0.00 0.00 0.00 20 4420.8
20260903185157 715 0 5.0 6.0 0.00 0.00 0.00 18 1799.4
20260903184348 -10 315 4.0 6.0 0.00 0.00 0.00 17 5318.5
20260903184149 -15 0 4.0 5.0 0.00 0.00 0.00 17 5318.5
20260903182934 715 315 3.0 5.0 0.00 0.00 0.00 15 1799.4
20260903182534 205 315 3.0 4.0 0.00 0.00 0.00 14 1714.1
20260903182125 260 315 2.0 3.0 0.00 0.00 0.00 13 5318.5
20260903181923 -30 270 1.0 3.0 0.00 0.00 0.00 13 5318.5
20260903181317 -28 0 2.0 3.0 0.00 0.00 0.00 12 5318.5
20260903180913 -22 270 1.0 2.0 0.00 0.00 0.00 12 5318.5
20260903180306 -79 315 1.0 3.0 0.00 0.00 0.00 11 5318.5
20260903180104 -11 315 2.0 3.0 0.00 0.00 0.00 11 5318.5
20260903175903 -24 315 2.0 3.0 0.00 0.00 0.00 10 5318.5
20260903175701 697 315 2.0 4.0 0.00 0.00 0.00 10 5318.5
20260903175458 715 270 3.0 4.0 0.00 0.00 0.00 10 1799.4
20260903174852 180 270 3.0 3.0 0.00 0.00 0.00 10 5318.5
20260903173437 306 270 4.0 5.0 0.00 0.00 0.00 9 5318.5
20260903173235 49 270 4.0 5.0 0.00 0.00 0.00 8 5318.5
20260903173033 -29 270 4.0 5.0 0.00 0.00 0.00 9 5318.5
20260903172633 -23 270 4.0 4.0 0.00 0.00 0.00 8 5318.5
20260903172427 -14 270 4.0 4.0 0.00 0.00 0.00 9 5318.5
20260903172023 -88 270 3.0 5.0 0.00 0.00 0.00 8 5318.5
20260903171619 715 270 3.0 3.0 0.00 0.00 0.00 8 4420.9
20260903171416 -72 292 2.0 4.0 0.00 0.00 0.00 8 5318.5
20260903171214 216 315 3.0 4.0 0.00 0.00 0.00 7 5318.5
20260903171012 115 270 3.0 4.0 0.00 0.00 0.00 6 5318.5
20260903170406 132 315 3.0 6.0 0.00 0.00 0.00 5 5318.5
20260903170204 226 315 4.0 5.0 0.00 0.00 0.00 6 5318.5
20260903165558 242 315 5.0 6.0 0.00 0.00 0.00 5 5318.5
20260903165157 297 315 5.0 6.0 0.00 0.00 0.00 5 5318.5
20260903164959 715 315 5.0 8.0 0.00 0.00 0.00 5 4420.9
20260903164548 715 292 5.0 5.0 0.00 0.00 0.00 5 1799.4
20260903164345 -24 315 3.0 6.0 0.00 0.00 0.00 5 5318.5
20260903163942 -19 270 3.0 5.0 0.00 0.00 0.00 5 5318.5
20260903162524 538 270 4.0 5.0 0.00 0.00 0.00 6 5318.5
20260903162322 147 315 4.0 5.0 0.00 0.00 0.00 6 5318.5
20260903162120 109 270 4.0 5.0 0.00 0.00 0.00 6 5318.5
20260903161918 203 315 3.0 5.0 0.00 0.00 0.00 6 5318.5
20260903161314 715 270 3.0 7.0 0.00 0.00 0.00 6 1799.3
20260903161109 313 315 6.0 7.0 0.00 0.00 0.00 6 5318.5
20260903160907 715 315 5.0 5.0 0.00 0.00 0.00 6 1799.4
20260903160504 -32 315 4.0 6.0 0.00 0.00 0.00 6 5318.5
20260903155858 715 315 6.0 8.0 0.00 0.00 0.00 6 1799.3
20260903155453 715 315 7.0 9.0 0.00 0.00 0.00 6 4420.8
20260903155254 -15 270 7.0 8.0 0.00 0.00 0.00 6 5318.5
20260903155049 -65 270 5.0 7.0 0.00 0.00 0.00 6 5318.5
20260903154846 714 315 6.0 6.0 0.00 0.00 0.00 7 4420.7
20260903154649 -10 315 2.0 3.0 0.00 0.00 0.00 8 5318.5
20260903154442 715 315 3.0 3.0 0.00 0.00 0.00 8 1799.4
20260903154242 -31 315 1.0 6.0 0.00 0.00 0.00 7 5318.5
20260903153841 998 270 6.0 6.0 0.00 0.00 0.00 8 5318.5
20260903153434 155 270 3.0 6.0 0.00 0.00 0.00 8 5318.5
20260903153231 49 315 3.0 6.0 0.00 0.00 0.00 8 5318.5
20260903153028 210 270 4.0 7.0 0.00 0.00 0.00 8 5318.5
20260903152826 304 270 6.0 7.0 0.00 0.00 0.00 8 5318.5
20260903152624 715 303 7.0 7.0 0.00 0.00 0.00 8 1799.3
20260903152422 -29 315 7.0 7.0 0.00 0.00 0.00 9 5318.5
20260903151816 49 270 3.0 6.0 0.00 0.00 0.00 8 5318.5
20260903151209 -13 315 7.0 7.0 0.00 0.00 0.00 9 4010.3
20260903151011 -16 315 2.0 6.0 0.00 0.00 0.00 9 5318.5
20260903150805 -75 315 6.0 6.0 0.00 0.00 0.00 10 5318.5
20260903150404 -19 270 5.0 5.0 0.00 0.00 0.00 10 1714.1
20260903144340 256 315 5.0 10.0 0.00 0.00 0.00 10 5318.5
20260903143936 311 315 8.0 12.0 0.00 0.00 0.00 10 5318.5
20260903143735 -24 315 9.0 12.0 0.00 0.00 0.00 10 5320.2
20260903143533 -28 315 11.0 12.0 0.00 0.00 0.00 10 5318.5
20260903143330 -19 292 6.0 8.0 0.00 0.00 0.00 10 5318.5
20260903142926 -13 292 6.0 10.0 0.00 0.00 0.00 10 5318.5
20260903142727 715 315 7.0 10.0 0.00 0.00 0.00 10 4420.8
20260903141542 258 315 9.0 10.0 0.00 0.00 0.00 11 5318.5
20260903141339 219 315 5.0 5.0 0.00 0.00 0.00 11 5318.5
20260903141137 313 315 3.0 9.0 0.00 0.00 0.00 12 5318.5
20260903140010 -17 270 4.0 7.0 0.00 0.00 0.00 13 5318.5
20260903135925 -17 270 4.0 7.0 0.00 0.00 0.00 13 5318.5
20260903134916 715 270 3.0 4.0 0.00 0.00 0.00 14 4420.8
20260903134311 446 292 10.0 11.0 0.00 0.00 0.00 13 5318.5
20260903133934 237 270 0.0 11.0 0.00 0.00 0.00 14 5318.5
20260903133531 293 315 4.0 10.0 0.00 0.00 0.00 15 5318.5
20260903133328 715 270 7.0 10.0 0.00 0.00 0.00 15 1799.3
20260903132318 -19 270 6.0 9.0 0.00 0.00 0.00 16 5318.5
20260903132116 -10 315 5.0 7.0 0.00 0.00 0.00 16 5318.5
20260903131913 -31 270 7.0 10.0 0.00 0.00 0.00 16 5318.5
20260903131510 -86 315 4.0 7.0 0.00 0.00 0.00 16 5318.5
20260903131105 101 315 8.0 10.0 0.00 0.00 0.00 16 5318.5
20260903130903 630 315 8.0 8.0 0.00 0.00 0.00 17 5318.5
20260903130500 118 270 4.0 9.0 0.00 0.00 0.00 17 5318.5
20260903130257 212 315 4.0 5.0 0.00 0.00 0.00 17 5318.5
20260903125449 322 270 10.0 10.0 0.00 0.00 0.00 18 5318.5
20260903124842 -31 270 5.0 7.0 0.00 0.00 0.00 18 5318.5
20260903123633 -15 315 5.0 8.0 0.00 0.00 0.00 19 5318.5
20260903122832 714 315 2.0 8.0 0.00 0.00 0.00 20 4420.7
20260903122225 155 270 6.0 9.0 0.00 0.00 0.00 20 5318.5
20260903121219 -29 292 4.0 9.0 0.00 0.00 0.00 19 5318.5
20260903120609 -27 315 10.0 10.0 0.00 0.00 0.00 20 5318.5
20260903120206 49 270 7.0 9.0 0.00 0.00 0.00 20 5318.5
20260903115357 715 292 5.0 5.0 0.00 0.00 0.00 20 1799.3
20260903115154 32 315 4.0 8.0 0.00 0.00 0.00 20 5318.5
20260903112528 -24 315 5.0 9.0 0.00 0.00 0.00 21 5321.1
20260903104852 247 315 5.0 9.0 0.00 0.00 0.00 20 5318.5
20260903104446 715 315 9.0 9.0 0.00 0.00 0.00 20 1799.4
20260903104043 -29 315 5.0 10.0 0.00 0.00 0.00 20 5318.5
20260903103234 -18 281 6.0 8.0 0.00 0.00 0.00 19 5318.5
20260903102826 -14 303 4.0 9.0 0.00 0.00 0.00 19 5318.5
20260903102423 -90 270 5.0 8.0 0.00 0.00 0.00 20 5318.5
20260903101412 113 303 1.0 3.0 0.00 0.00 0.00 21 5318.5
20260903101009 168 337 2.0 5.0 0.00 0.00 0.00 22 5318.5
20260903100606 224 292 0.0 4.0 0.00 0.00 0.00 22 5318.5
20260903100402 715 315 0.0 4.0 0.00 0.00 0.00 22 1799.4
20260903095959 -28 315 5.0 5.0 0.00 0.00 0.00 22 5318.5
20260903095757 -32 315 3.0 5.0 0.00 0.00 0.00 22 5318.5
20260903095555 -22 315 1.0 5.0 0.00 0.00 0.00 22 5318.5
20260903095352 -26 270 3.0 5.0 0.00 0.00 0.00 22 5318.5
20260903094947 -21 270 1.0 6.0 0.00 0.00 0.00 23 5318.5
20260903094543 -15 270 4.0 7.0 0.00 0.00 0.00 23 5318.5
20260903094341 -61 315 4.0 6.0 0.00 0.00 0.00 24 5318.5
20260903093937 -60 270 2.0 6.0 0.00 0.00 0.00 25 5318.5
20260903093131 104 315 4.0 6.0 0.00 0.00 0.00 23 5318.5
20260903092926 715 270 5.0 6.0 0.00 0.00 0.00 23 1799.3
20260903092523 253 315 5.0 5.0 0.00 0.00 0.00 24 5318.5
20260903092208 715 315 3.0 5.0 0.00 0.00 0.00 23 1799.3
20260903092120 715 315 3.0 5.0 0.00 0.00 0.00 23 1799.3
20260903091512 325 292 1.0 5.0 0.00 0.00 0.00 26 5318.5
20260903091310 -23 315 3.0 6.0 0.00 0.00 0.00 25 5318.5
20260903090906 -18 315 3.0 5.0 0.00 0.00 0.00 26 5318.5
20260903090802 -21 270 3.0 5.0 0.00 0.00 0.00 26 5318.5
20260903090707 -21 270 3.0 5.0 0.00 0.00 0.00 26 5318.5
20260903090502 -12 315 5.0 5.0 0.00 0.00 0.00 26 5318.5
20260903090301 -16 315 3.0 7.0 0.00 0.00 0.00 26 5318.5
20260903090058 -31 270 5.0 7.0 0.00 0.00 0.00 25 5318.5
20260903085855 -10 292 7.0 9.0 0.00 0.00 0.00 25 5318.5
20260903085451 789 315 7.0 7.0 0.00 0.00 0.00 25 5318.5
20260903084849 952 315 5.0 7.0 0.00 0.00 0.00 25 5318.5
20260903084645 189 315 6.0 7.0 0.00 0.00 0.00 26 5318.5
20260903084240 715 315 5.0 7.0 0.00 0.00 0.00 26 1799.4
20260903084038 715 270 7.0 7.0 0.00 0.00 0.00 26 1799.4
20260903082826 715 337 2.0 2.0 0.00 0.00 0.00 29 4420.8
20260903082420 -22 348 0.0 2.0 0.00 0.00 0.00 29 5318.5
20260903082219 715 337 1.0 2.0 0.00 0.00 0.00 29 1799.3
20260903081411 -24 292 1.0 3.0 0.00 0.00 0.00 31 5318.5
20260903081210 697 315 1.0 4.0 0.00 0.00 0.00 31 5318.5
20260903080805 715 315 4.0 5.0 0.00 0.00 0.00 31 1799.4
20260903080641 860 315 4.0 5.0 0.00 0.00 0.00 31 5318.5
20260903080602 860 315 4.0 5.0 0.00 0.00 0.00 31 5318.5
20260903080401 180 292 4.0 4.0 0.00 0.00 0.00 31 5318.5
20260903080202 141 315 3.0 5.0 0.00 0.00 0.00 31 5318.5
20260903075555 290 315 4.0 4.0 0.00 0.00 0.00 32 5318.5
20260903075352 715 303 4.0 4.0 0.00 0.00 0.00 32 1799.4
20260903075156 715 315 3.0 3.0 0.00 0.00 0.00 32 1799.4
20260903074340 -19 292 4.0 5.0 0.00 0.00 0.00 32 5318.5
20260903073531 -88 292 6.0 7.0 0.00 0.00 0.00 33 5318.5
20260903071717 715 337 3.0 4.0 0.00 0.00 0.00 38 1799.4
20260903071511 187 337 2.0 2.0 0.00 0.00 0.00 39 5318.5
20260903070904 715 315 1.0 2.0 0.00 0.00 0.00 39 4420.8
20260903070500 715 0 2.0 2.0 0.00 0.00 0.00 41 4420.8
20260903070058 -20 315 2.0 2.0 0.00 0.00 0.00 41 5318.5
20260903065654 49 315 2.0 2.0 0.00 0.00 0.00 42 5318.5
20260903065449 -19 315 2.0 3.0 0.00 0.00 0.00 42 5318.5
20260903065046 715 315 3.0 3.0 0.00 0.00 0.00 43 4420.8
20260903064845 -42 315 3.0 3.0 0.00 0.00 0.00 43 5318.5
20260903064756 -31 315 3.0 3.0 0.00 0.00 0.00 44 5318.5
20260903064642 -31 315 3.0 3.0 0.00 0.00 0.00 44 5318.5
20260903063430 216 292 0.0 0.0 0.00 0.00 0.00 45 403.4
20260903062824 233 315 2.0 3.0 0.00 0.00 0.00 43 5318.5
20260903062623 327 315 3.0 3.0 0.00 0.00 0.00 45 5318.5
20260903062016 -31 326 1.0 126.0 0.00 0.00 0.00 45 5318.5
20260903061913 584 337 126.0 126.0 0.00 0.00 0.00 45 5318.5
20260903061840 -90 337 0.0 0.0 0.00 0.00 0.00 45 5318.5
20260903061437 973 337 0.0 0.0 0.00 0.00 0.00 46 5318.5
20260903061238 584 292 0.0 0.0 0.00 0.00 0.00 45 5318.5
20260903061204 -90 281 0.0 0.0 0.00 0.00 0.00 43 531.8
20260903061159 -90 281 0.0 0.0 0.00 0.00 0.00 43 5318.5
20260903060957 32 303 0.0 123.0 0.00 0.00 0.00 46 4010.3
20260903060207 973 337 1.0 1.0 0.00 0.00 0.00 46 5318.5
20260903055225 272 292 2.0 2.0 0.00 0.00 0.00 45 5318.5
20260903054618 714 337 2.0 3.0 0.00 0.00 0.00 46 4420.7
20260903053735 -27 292 3.0 127.0 0.00 0.00 0.00 46 5318.5
20260903053534 715 303 3.0 127.0 0.00 0.00 0.00 47 1799.4
20260903053432 715 315 127.0 127.0 0.00 0.00 0.00 47 1799.3
20260903053237 288 315 1.0 3.0 0.00 0.00 0.00 47 5318.5
20260903052831 715 292 4.0 126.0 0.00 0.00 0.00 46 1799.4
20260903051919 288 292 2.0 3.0 0.00 0.00 0.00 47 5318.5
20260903050902 715 292 2.0 126.0 0.00 0.00 0.00 46 4420.9
20260903050620 288 292 2.0 4.0 0.00 0.00 0.00 47 5318.5
20260903050419 -27 292 4.0 126.0 0.00 0.00 0.00 46 4010.3
20260903050216 -31 292 2.0 126.0 0.00 0.00 0.00 47 5318.5
20260903045715 -27 270 1.0 126.0 0.00 0.00 0.00 47 5318.5
20260903045513 -31 292 3.0 126.0 0.00 0.00 0.00 47 5318.5
20260903045042 124 292 5.0 6.0 0.00 0.00 0.00 47 5318.5
20260903044840 860 292 6.0 6.0 0.00 0.00 0.00 47 5318.5
20260903043829 290 292 5.0 5.0 0.00 0.00 0.00 47 5318.5
20260903043705 49 292 4.0 5.0 0.00 0.00 0.00 47 5318.5
20260903043627 49 292 4.0 5.0 0.00 0.00 0.00 47 5318.5
20260903043424 715 292 4.0 5.0 0.00 0.00 0.00 47 4420.6
20260903043222 306 270 3.0 5.0 0.00 0.00 0.00 47 5320.2
20260903043021 -25 292 3.0 5.0 0.00 0.00 0.00 47 5318.5
20260903042212 715 270 3.0 3.0 0.00 0.00 0.00 47 4420.8
20260903042015 -18 292 1.0 2.0 0.00 0.00 0.00 47 5318.5
20260903041403 -31 337 1.0 3.0 0.00 0.00 0.00 47 5318.5
20260903040959 715 292 3.0 4.0 0.00 0.00 0.00 47 1799.4
20260903040354 715 270 3.0 4.0 0.00 0.00 0.00 46 1799.4
20260903040153 -31 292 2.0 4.0 0.00 0.00 0.00 46 5318.5
20260903034536 -31 270 3.0 3.0 0.00 0.00 0.00 46 5318.5
20260903034333 -20 270 1.0 3.0 0.00 0.00 0.00 45 5318.5
20260903034130 -31 270 2.0 3.0 0.00 0.00 0.00 45 5318.5
20260903033928 715 292 1.0 3.0 0.00 0.00 0.00 45 1799.4
20260903033323 -13 337 1.0 3.0 0.00 0.00 0.00 45 4010.3
20260903033120 -42 337 2.0 3.0 0.00 0.00 0.00 45 5318.5
20260903032312 676 292 2.0 3.0 0.00 0.00 0.00 45 5318.5
20260903031905 715 292 3.0 4.0 0.00 0.00 0.00 45 1799.3
20260903031705 203 292 4.0 4.0 0.00 0.00 0.00 44 5318.5
20260903030854 313 292 3.0 6.0 0.00 0.00 0.00 44 5318.5
20260903030452 715 303 2.0 3.0 0.00 0.00 0.00 43 1799.4
20260903030047 -23 292 2.0 6.0 0.00 0.00 0.00 42 5318.5
20260903025442 -21 270 1.0 4.0 0.00 0.00 0.00 41 5318.5
20260903025239 715 270 4.0 4.0 0.00 0.00 0.00 41 1799.4
20260903025039 -15 292 2.0 4.0 0.00 0.00 0.00 41 5318.5
20260903024431 -10 270 2.0 4.0 0.00 0.00 0.00 40 5318.5
20260903024027 446 270 2.0 3.0 0.00 0.00 0.00 40 5318.5
20260903023825 138 270 2.0 2.0 0.00 0.00 0.00 40 5318.5
20260903023218 155 315 1.0 1.0 0.00 0.00 0.00 40 5318.5
20260903022814 210 292 0.0 2.0 0.00 0.00 0.00 40 5318.5
20260903022611 304 292 0.0 2.0 0.00 0.00 0.00 40 5318.5
20260903022208 715 292 1.0 3.0 0.00 0.00 0.00 39 1799.4
20260903021805 -24 292 3.0 3.0 0.00 0.00 0.00 39 5318.5
20260903014933 145 292 1.0 3.0 0.00 0.00 0.00 39 5318.5
20260903014530 201 292 1.0 3.0 0.00 0.00 0.00 39 5318.5
20260903014330 295 303 2.0 5.0 0.00 0.00 0.00 39 5318.5
20260903013924 -30 292 3.0 4.0 0.00 0.00 0.00 39 5318.5
20260903013721 311 292 2.0 2.0 0.00 0.00 0.00 39 5318.5
20260903013116 -19 292 1.0 5.0 0.00 0.00 0.00 38 5318.5
20260903012913 -23 292 2.0 5.0 0.00 0.00 0.00 39 5318.5
20260903012307 -84 292 4.0 4.0 0.00 0.00 0.00 39 5318.5
20260903012106 -12 292 4.0 6.0 0.00 0.00 0.00 39 5318.5
20260903011902 -29 292 5.0 6.0 0.00 0.00 0.00 39 1714.1
20260903011459 262 292 4.0 6.0 0.00 0.00 0.00 38 5318.5
20260903011057 814 292 5.0 5.0 0.00 0.00 0.00 38 5318.5
20260903010852 175 292 4.0 5.0 0.00 0.00 0.00 38 5318.5
20260903010246 191 292 4.0 5.0 0.00 0.00 0.00 38 5318.5
20260903005641 715 292 4.0 5.0 0.00 0.00 0.00 37 4420.8
20260903005439 302 292 4.0 4.0 0.00 0.00 0.00 37 5318.5
20260903003821 -13 337 4.0 4.0 0.00 0.00 0.00 36 5318.5
20260903003013 715 315 4.0 5.0 0.00 0.00 0.00 36 1799.4
20260903002812 722 303 4.0 5.0 0.00 0.00 0.00 36 5318.5
20260903002205 207 337 3.0 5.0 0.00 0.00 0.00 36 5318.5
20260903001757 262 292 4.0 4.0 0.00 0.00 0.00 36 403.3
20260903001557 224 292 3.0 4.0 0.00 0.00 0.00 36 5318.5
20260903000950 -28 292 4.0 5.0 0.00 0.00 0.00 36 5318.5
20260903000344 -26 337 3.0 4.0 0.00 0.00 0.00 36 5318.5
20260902234929 -60 292 4.0 6.0 0.00 0.00 0.00 36 5318.5
20260902234524 492 292 5.0 7.0 0.00 0.00 0.00 36 1714.1
20260902233919 198 292 6.0 7.0 0.00 0.00 0.00 36 5318.5
20260902233515 253 337 5.0 7.0 0.00 0.00 0.00 35 5318.5
20260902233316 214 292 6.0 7.0 0.00 0.00 0.00 35 5318.5
20260902232909 270 292 6.0 7.0 0.00 0.00 0.00 35 5318.5
20260902232706 -29 292 7.0 7.0 0.00 0.00 0.00 36 5318.5
20260902231655 -21 315 6.0 6.0 0.00 0.00 0.00 35 5318.5
20260902231453 715 292 4.0 6.0 0.00 0.00 0.00 35 1799.3
20260902230847 -10 292 6.0 6.0 0.00 0.00 0.00 35 5318.5
20260902230646 -15 315 6.0 6.0 0.00 0.00 0.00 35 5318.5
20260902230444 715 292 5.0 6.0 0.00 0.00 0.00 34 4420.8
20260902230042 -31 292 5.0 6.0 0.00 0.00 0.00 35 5318.5
20260902225840 952 292 5.0 6.0 0.00 0.00 0.00 35 5318.5
20260902224828 299 292 5.0 6.0 0.00 0.00 0.00 35 5318.5
20260902224021 -24 315 5.0 5.0 0.00 0.00 0.00 34 4010.3
20260902222401 -24 337 4.0 4.0 0.00 0.00 0.00 33 5318.5
20260902221354 715 337 4.0 4.0 0.00 0.00 0.00 33 1799.4
20260902215941 306 292 1.0 1.0 0.00 0.00 0.00 32 5318.5
20260902215739 -25 292 0.0 3.0 0.00 0.00 0.00 32 5318.5
20260902214924 -15 292 3.0 4.0 0.00 0.00 0.00 32 5318.5
20260902213311 630 292 1.0 2.0 0.00 0.00 0.00 31 5318.5
20260902212702 -31 270 1.0 1.0 0.00 0.00 0.00 31 5318.5
20260902211853 322 315 1.0 3.0 0.00 0.00 0.00 31 5318.5
20260902210842 -26 315 3.0 5.0 0.00 0.00 0.00 31 5318.5
20260902210640 -16 292 4.0 5.0 0.00 0.00 0.00 31 5318.5
20260902210438 -20 270 4.0 4.0 0.00 0.00 0.00 30 5318.5
20260902210235 -11 315 2.0 5.0 0.00 0.00 0.00 31 5318.5
20260902210034 -15 303 3.0 5.0 0.00 0.00 0.00 31 5318.5
20260902205831 715 270 5.0 5.0 0.00 0.00 0.00 30 4420.8
20260902205427 714 315 4.0 5.0 0.00 0.00 0.00 29 4420.7
20260902205225 927 315 3.0 9.0 0.00 0.00 0.00 29 5318.5